FENGYUN 1C DEB

Satellite information

Favourite Embed

Satellite Type and Status

DEBRISIN ORBIT

Key statistics

Satellite FENGYUN 1C DEB at a glance.

Uptime

9714

Days in orbit

Revolutions

≈ 14.1

Per day

Orbit

SSO

Sun Synchronous Orbit

Inclination

98.6

Latest

Satellite identification and parameters

Extended collection of information and parameters for FENGYUN 1C DEB.

Object identification

Identified? True

Debris? True

Object name: FENGYUN 1C DEB

International designator: 1999-025ZP

Object number (NORAD): 30302

Object ID (CCSDS): 30302

Country: PEOPLES REPUBLIC OF CHINA (PRC)

Current information (Y/N): Y

RCS size: SMALL

Orbital parameters

Period: 101.925 minutes

Inclination: 98.5528 deg

SMA: 7227.932 km

Apoapsis: 925.472 km

Periapsis: 774.122 km

RAAN: 254.0139 deg

Eccentricy: 0.01046982

Argument of periapsis: 118.7964 deg

Mean anomaly: 242.3771 deg

Mean motion: 14.12803125 rev/day

Mean motion (dot): 0.00005405 rev/day2

B* drag term: 0.0027806065 1/REarth

Two-line elements (TLE)

Creation date: Dec. 12, 2025, 10:14 a.m.

Reference frame: TEME

Reference center: EARTH

Epoch: Dec. 12, 2025, 7:04 a.m. UTC

TLE line 0: 0 FENGYUN 1C DEB

TLE line 1: 1 30302U 99025ZP 25346.29498335 .00005405 00000-0 27806-2 0 9995

TLE line 2: 2 30302 98.5528 254.0139 0104698 118.7964 242.3771 14.12803125960373

Live tracking on map

Real-time ground track for satellite FENGYUN 1C DEB.

In-orbit conjunctions

A list of the most updated potential collisions computed for object FENGYUN 1C DEB.

Target Orbit TCA Probability of collision Miss distance Type
COSMOS 1420 LEO 2024-12-15 13:49:16 0.0001514066 457.0 (m) PAYLOAD
SCOUT X-4 DEB LEO 2024-11-10 17:03:44 0.000198198 724.0 (m) DEBRIS

Associated space launch

Chinese polar orbiting meteorological satellite

FENGYUN 1C DEB was lifted into orbit during the mission ‘Long March 4B | Feng Yun 1C’, on board a Long March 4B space rocket.

The launch took place on May 10, 1999, 1:33 a.m. from Launch Complex 7.

For more information about the launch, click the button.

Launch to space Long March 4B | Feng Yun 1C
Long March 4B | Feng Yun 1C

Agency: N/A

Status: Launch Successful

Launch date: May 10, 1999, 1:33 a.m. UTC

Rocket: Long March 4B

Launch pad: Launch Complex 7

Location: Taiyuan Satellite Launch Center, People's Republic of China

...

Latest news about this satellite

There are no fresh news available about this satellite. Check back as we update our databases every day.


Newsletter sign-up

Weekly statistics, charts and insights to help you stay on top of the space industry.